When you browse on this site, cookies collect data to enhance your experience and personalize the content and advertising you see.
Visit our Privacy Policy to learn more. By continuing to use the site, you agree to this use of cookies and data.
  • In Österreich
  • Länderverzeichnis
  • Für 7 Tage
  • Wassertemperatur
  • Wetterkarte
  • News
  • Widgets
  • user-avatar
    Anmelden

    Stündliche Wetter Cuautepec de Hinojosa

    Heute, 23 Oktober, Mittwoch

    Zeit Temperatur Niederschläge Wind Luftdruck Luftfeuchtigkeit
    00:00 +13°C° 1.5 mm 1 m/S 582 mmHg 97%
    01:00 +13°C° 1.5 mm 1 m/S 581 mmHg 97%
    02:00 +13°C° 1.5 mm 1 m/S 581 mmHg 97%
    03:00 +13°C° 0.1 mm 1 m/S 581 mmHg 97%
    04:00 +12°C° 0.1 mm 1 m/S 581 mmHg 97%
    05:00 +12°C° 0.1 mm 1 m/S 581 mmHg 97%
    06:00 +13°C° 0 mm 1 m/S 581 mmHg 93%
    07:00 +14°C° 0 mm 1 m/S 582 mmHg 89%
    08:00 +15°C° 0 mm 1 m/S 583 mmHg 86%
    09:00 +16°C° 0 mm 2 m/S 583 mmHg 81%
    10:00 +17°C° 0 mm 2 m/S 583 mmHg 77%
    11:00 +18°C° 0 mm 2 m/S 583 mmHg 72%
    12:00 +18°C° 0.2 mm 2 m/S 582 mmHg 74%
    13:00 +17°C° 0.2 mm 3 m/S 581 mmHg 76%
    14:00 +17°C° 0.2 mm 3 m/S 581 mmHg 78%
    15:00 +16°C° 0.1 mm 2 m/S 580 mmHg 83%
    16:00 +15°C° 0.1 mm 2 m/S 580 mmHg 87%
    17:00 +14°C° 0.1 mm 2 m/S 579 mmHg 92%
    18:00 +14°C° 0.1 mm 2 m/S 580 mmHg 93%
    19:00 +14°C° 0.1 mm 1 m/S 580 mmHg 94%
    20:00 +13°C° 0.1 mm 1 m/S 581 mmHg 95%
    21:00 +13°C° 0 mm 1 m/S 581 mmHg 94%
    22:00 +13°C° 0 mm 1 m/S 580 mmHg 94%
    23:00 +12°C° 0 mm 1 m/S 580 mmHg 94%

    Morgen, 24 Oktober, Donnerstag

    Zeit Temperatur Niederschläge Wind Luftdruck Luftfeuchtigkeit
    00:00 +11°C° 0 mm 0 m/S 579 mmHg 94%
    01:00 +11°C° 0 mm 0 m/S 579 mmHg 94%
    02:00 +10°C° 0 mm 0 m/S 578 mmHg 94%
    03:00 +10°C° 0 mm 0 m/S 578 mmHg 94%
    04:00 +10°C° 0 mm 0 m/S 578 mmHg 94%
    05:00 +11°C° 0 mm 1 m/S 578 mmHg 94%
    06:00 +13°C° 0 mm 1 m/S 579 mmHg 87%
    07:00 +15°C° 0 mm 1 m/S 581 mmHg 80%
    08:00 +18°C° 0 mm 1 m/S 582 mmHg 74%
    09:00 +19°C° 0.1 mm 1 m/S 582 mmHg 72%
    10:00 +19°C° 0.1 mm 2 m/S 582 mmHg 70%
    11:00 +20°C° 0.1 mm 2 m/S 582 mmHg 68%
    12:00 +19°C° 0.5 mm 2 m/S 581 mmHg 71%
    13:00 +19°C° 0.5 mm 2 m/S 580 mmHg 75%
    14:00 +19°C° 0.5 mm 2 m/S 579 mmHg 79%
    15:00 +18°C° 0.3 mm 2 m/S 579 mmHg 84%
    16:00 +17°C° 0.3 mm 2 m/S 579 mmHg 90%
    17:00 +16°C° 0.3 mm 2 m/S 579 mmHg 95%
    18:00 +15°C° 0.1 mm 1 m/S 579 mmHg 95%
    19:00 +15°C° 0.1 mm 1 m/S 579 mmHg 95%
    20:00 +15°C° 0.1 mm 1 m/S 579 mmHg 96%
    21:00 +14°C° 0 mm 1 m/S 579 mmHg 95%
    22:00 +14°C° 0 mm 1 m/S 579 mmHg 95%
    23:00 +13°C° 0 mm 1 m/S 579 mmHg 94%

    übermorgen, 25 Oktober, Freitag

    Zeit Temperatur Niederschläge Wind Luftdruck Luftfeuchtigkeit
    00:00 +13°C° 0 mm 1 m/S 579 mmHg 94%
    01:00 +12°C° 0 mm 0 m/S 578 mmHg 93%
    02:00 +11°C° 0 mm 0 m/S 578 mmHg 93%
    03:00 +11°C° 0 mm 0 m/S 578 mmHg 93%
    04:00 +11°C° 0 mm 0 m/S 578 mmHg 94%
    05:00 +11°C° 0 mm 0 m/S 578 mmHg 94%
    06:00 +13°C° 0 mm 1 m/S 580 mmHg 90%
    07:00 +15°C° 0 mm 1 m/S 581 mmHg 86%
    08:00 +16°C° 0 mm 1 m/S 582 mmHg 82%
    09:00 +17°C° 0.3 mm 2 m/S 582 mmHg 80%
    10:00 +17°C° 0.3 mm 3 m/S 582 mmHg 79%
    11:00 +18°C° 0.3 mm 4 m/S 582 mmHg 77%
    12:00 +17°C° 0.9 mm 4 m/S 582 mmHg 81%
    13:00 +15°C° 0.9 mm 4 m/S 581 mmHg 85%
    14:00 +14°C° 0.9 mm 4 m/S 580 mmHg 89%
    15:00 +13°C° 0.5 mm 3 m/S 580 mmHg 92%
    16:00 +12°C° 0.5 mm 3 m/S 580 mmHg 94%
    17:00 +11°C° 0.5 mm 3 m/S 580 mmHg 96%
    18:00 +11°C° 0.1 mm 3 m/S 580 mmHg 96%
    19:00 +11°C° 0.1 mm 3 m/S 581 mmHg 96%
    20:00 +12°C° 0.1 mm 2 m/S 581 mmHg 96%
    21:00 +10°C° 0.1 mm 2 m/S 581 mmHg 96%
    22:00 +11°C° 0.1 mm 1 m/S 581 mmHg 96%
    23:00 +11°C° 0.1 mm 1 m/S 581 mmHg 96%

    26 Oktober, Samstag

    Zeit Temperatur Niederschläge Wind Luftdruck Luftfeuchtigkeit
    00:00 +11°C° 0.5 mm 1 m/S 581 mmHg 96%
    01:00 +11°C° 0.5 mm 1 m/S 581 mmHg 97%
    02:00 +11°C° 0.5 mm 1 m/S 580 mmHg 97%
    03:00 +11°C° 0.1 mm 1 m/S 580 mmHg 97%
    04:00 +11°C° 0.1 mm 1 m/S 580 mmHg 96%
    05:00 +11°C° 0.1 mm 1 m/S 580 mmHg 96%
    06:00 +11°C° 0 mm 0 m/S 581 mmHg 93%
    07:00 +12°C° 0 mm 0 m/S 582 mmHg 89%
    08:00 +12°C° 0 mm 0 m/S 582 mmHg 86%
    09:00 +15°C° 0 mm 1 m/S 582 mmHg 82%
    10:00 +16°C° 0 mm 1 m/S 582 mmHg 78%
    11:00 +18°C° 0 mm 1 m/S 582 mmHg 74%
    12:00 +18°C° 0.2 mm 1 m/S 582 mmHg 75%
    13:00 +18°C° 0.2 mm 1 m/S 581 mmHg 77%
    14:00 +16°C° 0.2 mm 2 m/S 580 mmHg 79%
    15:00 +15°C° 0.7 mm 1 m/S 580 mmHg 84%
    16:00 +14°C° 0.7 mm 1 m/S 580 mmHg 88%
    17:00 +13°C° 0.7 mm 1 m/S 580 mmHg 93%
    18:00 +13°C° 0.2 mm 1 m/S 580 mmHg 93%
    19:00 +13°C° 0.2 mm 1 m/S 580 mmHg 93%
    20:00 +13°C° 0.2 mm 1 m/S 580 mmHg 94%
    21:00 +13°C° 0 mm 1 m/S 580 mmHg 93%
    22:00 +13°C° 0 mm 1 m/S 580 mmHg 92%
    23:00 +13°C° 0 mm 1 m/S 580 mmHg 92%

    27 Oktober, Sonntag

    Zeit Temperatur Niederschläge Wind Luftdruck Luftfeuchtigkeit
    00:00 +13°C° 0 mm 1 m/S 580 mmHg 92%
    01:00 +13°C° 0 mm 1 m/S 579 mmHg 92%
    02:00 +13°C° 0 mm 1 m/S 579 mmHg 92%
    03:00 +12°C° 0 mm 1 m/S 579 mmHg 91%
    04:00 +12°C° 0 mm 1 m/S 579 mmHg 90%
    05:00 +12°C° 0 mm 1 m/S 579 mmHg 89%
    06:00 +14°C° 0 mm 1 m/S 580 mmHg 82%
    07:00 +16°C° 0 mm 1 m/S 581 mmHg 75%
    08:00 +19°C° 0 mm 1 m/S 582 mmHg 69%
    09:00 +20°C° 0.1 mm 1 m/S 582 mmHg 67%
    10:00 +20°C° 0.1 mm 2 m/S 583 mmHg 64%
    11:00 +21°C° 0.1 mm 2 m/S 583 mmHg 62%
    12:00 +20°C° 0.8 mm 2 m/S 582 mmHg 66%
    13:00 +20°C° 0.8 mm 2 m/S 581 mmHg 71%
    14:00 +19°C° 0.8 mm 2 m/S 580 mmHg 75%
    15:00 +18°C° 0.4 mm 2 m/S 580 mmHg 81%
    16:00 +16°C° 0.4 mm 2 m/S 579 mmHg 87%
    17:00 +15°C° 0.4 mm 1 m/S 579 mmHg 93%
    18:00 +14°C° 0 mm 1 m/S 579 mmHg 91%
    19:00 +14°C° 0 mm 1 m/S 579 mmHg 90%
    20:00 +13°C° 0 mm 1 m/S 580 mmHg 89%
    21:00 +13°C° 0 mm 1 m/S 580 mmHg 87%
    22:00 +13°C° 0 mm 1 m/S 580 mmHg 84%
    23:00 +13°C° 0 mm 1 m/S 579 mmHg 82%

    28 Oktober, Montag

    Zeit Temperatur Niederschläge Wind Luftdruck Luftfeuchtigkeit
    00:00 +13°C° 0 mm 1 m/S 579 mmHg 81%
    01:00 +13°C° 0 mm 1 m/S 579 mmHg 80%
    02:00 +13°C° 0 mm 1 m/S 579 mmHg 79%
    03:00 +13°C° 0 mm 1 m/S 579 mmHg 78%
    04:00 +12°C° 0 mm 0 m/S 579 mmHg 77%
    05:00 +12°C° 0 mm 0 m/S 579 mmHg 75%
    06:00 +14°C° 0 mm 1 m/S 581 mmHg 71%
    07:00 +16°C° 0 mm 1 m/S 582 mmHg 66%
    08:00 +18°C° 0 mm 1 m/S 583 mmHg 61%
    09:00 +18°C° 0 mm 2 m/S 583 mmHg 60%
    10:00 +19°C° 0 mm 3 m/S 584 mmHg 59%
    11:00 +20°C° 0 mm 4 m/S 584 mmHg 57%
    12:00 +19°C° 0 mm 4 m/S 583 mmHg 63%
    13:00 +18°C° 0 mm 4 m/S 582 mmHg 68%
    14:00 +17°C° 0 mm 4 m/S 581 mmHg 74%
    15:00 +14°C° 0.1 mm 4 m/S 581 mmHg 81%
    16:00 +13°C° 0.1 mm 3 m/S 581 mmHg 87%
    17:00 +11°C° 0.1 mm 3 m/S 580 mmHg 94%
    18:00 +11°C° 0.2 mm 3 m/S 581 mmHg 94%
    19:00 +11°C° 0.2 mm 3 m/S 581 mmHg 94%
    20:00 +12°C° 0.2 mm 2 m/S 582 mmHg 94%
    21:00 +12°C° 0.2 mm 2 m/S 582 mmHg 94%
    22:00 +12°C° 0.2 mm 2 m/S 582 mmHg 94%
    23:00 +12°C° 0.2 mm 2 m/S 582 mmHg 95%

    29 Oktober, Dienstag

    Zeit Temperatur Niederschläge Wind Luftdruck Luftfeuchtigkeit
    00:00 +10°C° 0.2 mm 2 m/S 582 mmHg 95%
    01:00 +10°C° 0.2 mm 2 m/S 581 mmHg 95%
    02:00 +10°C° 0.2 mm 2 m/S 581 mmHg 96%
    03:00 +10°C° 0.1 mm 2 m/S 581 mmHg 96%
    04:00 +10°C° 0.1 mm 2 m/S 581 mmHg 96%
    05:00 +10°C° 0.1 mm 2 m/S 581 mmHg 96%
    06:00 +10°C° 0 mm 2 m/S 582 mmHg 95%
    07:00 +10°C° 0 mm 2 m/S 582 mmHg 94%
    08:00 +10°C° 0 mm 2 m/S 583 mmHg 92%
    09:00 +12°C° 0 mm 2 m/S 583 mmHg 89%
    10:00 +13°C° 0 mm 2 m/S 583 mmHg 87%
    11:00 +13°C° 0 mm 2 m/S 583 mmHg 84%
    12:00 +14°C° 0 mm 2 m/S 582 mmHg 83%
    13:00 +14°C° 0 mm 2 m/S 582 mmHg 83%
    14:00 +14°C° 0 mm 2 m/S 581 mmHg 83%
    15:00 +13°C° 0 mm 2 m/S 581 mmHg 86%
    16:00 +12°C° 0 mm 2 m/S 581 mmHg 89%
    17:00 +12°C° 0 mm 2 m/S 581 mmHg 93%
    18:00 +10°C° 0 mm 2 m/S 581 mmHg 93%
    19:00 +10°C° 0 mm 2 m/S 581 mmHg 94%
    20:00 +11°C° 0 mm 1 m/S 582 mmHg 95%
    21:00 +11°C° 0 mm 1 m/S 581 mmHg 94%
    22:00 +11°C° 0 mm 1 m/S 581 mmHg 94%
    23:00 +11°C° 0 mm 1 m/S 581 mmHg 93%
    Mehr zeigen